Location: Unspecified
(40.9447°N, 78.9903°W)
Time: 02:44:41
(UTC-04:00)

Okean 3 - Pass Details

Date: 03 August 2021
Orbit: 575 x 601 km, 82.5° (Epoch: 26 September)

Event Time Altitude Azimuth Distance (km) Brightness Sun altitude
Rises 01:44:43 0° 350° (N) 2,843 8.0 -31.4°
Reaches altitude 10° 01:46:56 10° 348° (NNW) 1,933 6.9 -31.3°
Enters shadow 01:48:57 27° 343° (NNW) 1,151 5.4 -31.3°
